Location: Baix
(44.7118°N, 4.7648°E)
Time: 03:52:00
(UTC+00:00)

Vanguard 1 Rocket - Pass Details

Date: 12 October 2022
Orbit: 650 x 4225 km, 34.3° (Epoch: 06 December)

Event Time Altitude Azimuth Distance (km) Brightness Sun altitude
Rises 19:56:20 0° 266° (W) 8,391 13.2 -31.3°
Reaches altitude 10° 20:02:41 10° 264° (W) 7,144 12.6 -32.3°
Maximum altitude 20:24:01 56° 194° (SSW) 3,130 9.8 -35.7°
Enters shadow 20:26:45 51° 164° (SSE) 3,004 9.6 -36.2°
